Regional Weather Roundup
Issued by NWS

Home | Current Version | Previous Version | Text Only | Print | Product List | Glossary Off
Versions: 1 2 3 4 5 6 7 8 9 10 11 12 13 14 15 16 17 18 19 20 21 22 23 24 25 26 27 28 29 30 31 32 33 34 35 36 37 38 39 40 41 42 43 44 45 46 47 48 49 50

000
ASUS43 KDTX 280201
RWRMI
MICHIGAN HOURLY REGIONAL WEATHER ROUNDUP
NATIONAL WEATHER SERVICE DETROIT/PONTIAC MI
1000 PM EDT SUN MAY 27 2018

NOTE: "FAIR" INDICATES FEW OR NO CLOUDS BELOW 12,000 FEET WITH NO
SIGNIFICANT WEATHER AND/OR OBSTRUCTION TO VISIBILITY.

MIZ047>049-052>055-059>063-066>070-074>076-081>083-280300-
SOUTHEAST LOWER MICHIGAN

CITY           SKY/WX    TMP DP  RH WIND       PRES   REMARKS
ADRIAN         CLOUDY    79  64  60 CALM      29.91R
ANN ARBOR      FAIR      76  68  76 S5        29.90R
BAD AXE        FAIR      69  66  88 CALM      29.88R
CARO           FAIR      72  62  72 CALM      29.88R
DETROIT CITY   FAIR      79  65  62 S8        29.89R
DETROIT        FAIR      77  67  71 S5        29.90R
FLINT          FAIR      74  64  71 W3        29.89R
GROSSE ILE     FAIR      69  67  92 S5        29.90R
HILLSDALE      FAIR      73  63  68 S3        29.92R
HOWELL         FAIR      78  62  58 CALM      29.91R

CITY           SKY/WX    TMP DP  RH WIND       PRES   REMARKS
JACKSON        FAIR      76  65  68 CALM      29.91R
LAMBERTVILLE   FAIR      77  70  78 SE3       29.90S
LANSING        FAIR      80  62  54 NW3       29.90R
LAPEER         CLOUDY    75  64  69 CALM      29.89R
MASON          FAIR      77  65  65 CALM      29.91R
MONROE         FAIR      74  69  85 SE3       29.89R
MT. CLEMENS    MOCLDY    75  74  97 S8        29.89R
PONTIAC        MOCLDY    83  64  52 W6        29.89R
PORT HOPE        N/A     67  63  87 NW10      29.86R
PORT HURON     MOCLDY    77  66  69 S6        29.89R
TRI CITIES     FAIR      74  67  78 SW3       29.88R
MIDLAND        FAIR      69  67  92 CALM      29.87R
TROY           FAIR      84  64  50 S8        29.91R
SAGINAW HB     FAIR      72  63  73 SW3       29.87R
$$
MIZ043>046-050>051-056>058-064>065-071>073-077>080-280300-
SOUTHWEST LOWER MICHIGAN

CITY           SKY/WX    TMP DP  RH WIND       PRES   REMARKS
BATTLE CREEK   FAIR      76  63  64 CALM      29.91R
BENTON HARBOR  FAIR      74  67  78 CALM      29.89R
BIG RAPIDS     FAIR      72  60  67 CALM      29.90R
COLDWATER      FAIR      76  62  60 CALM      29.91S
FREMONT        FAIR      74  65  73 CALM      29.88R
HOLLAND        FAIR      74  65  73 CALM      29.89R
GRAND RAPIDS   FAIR      79  64  60 SW3       29.89R
IONIA          FAIR      78  62  57 CALM      29.88S
KALAMAZOO      FAIR      78  60  53 CALM      29.90R
LUDINGTON      FAIR      66  63  91 CALM      29.88R
MARSHALL       FAIR      74  62  64 CALM      29.90S
MOUNT PLEASANT FAIR      70  66  88 CALM      29.88R
MUSKEGON       MOCLDY    75  60  59 CALM      29.88R
SOUTH HAVEN    FAIR      73  66  79 CALM      29.89R
$$
MIZ016>042-280300-
NORTHERN LOWER MICHIGAN

CITY           SKY/WX    TMP DP  RH WIND       PRES   REMARKS
ALPENA         FAIR      72  63  73 CALM      29.87R
BEAVER ISLAND  FAIR      58  53  86 CALM      29.90R
BELLAIRE       FAIR      66  62  88 CALM      29.88R
CADILLAC       FAIR      67  60  78 CALM      29.92
CHARLEVOIX     FAIR      59  54  83 CALM      29.92R
FRANKFORT      FAIR      63  60  88 CALM      29.90R
GAYLORD        FAIR      70  61  73 CALM      29.91R
GRAYLING       FAIR      68  59  72 CALM      29.89R
HARBOR SPRINGS FAIR      60  60  98 CALM      29.88R
HOUGHTON LAKE  FAIR      71  58  63 CALM      29.91R
MANISTEE       FAIR      66  61  84 CALM      29.88R
OSCODA         FAIR      69  59  69 N6        29.88R
PELLSTON       FAIR      72  63  73 NW3       29.88R
ROGERS CITY    FAIR      62  58  87 CALM      29.88S
TRAVERSE CITY  FAIR      70  59  68 CALM      29.87R
$$
MIZ007>008-015-280300-
EASTERN UPPER MICHIGAN

CITY           SKY/WX    TMP DP  RH WIND       PRES   REMARKS
KINROSS        FAIR      65  59  81 N3        29.88R
MACKINAC ISLAN FAIR      65  58  79 SW6       29.88R
NEWBERRY       FAIR      67  63  86 CALM      29.88R
S. S. MARIE    FAIR      59  54  83 CALM      29.86S
$$
MIZ004>006-011>014-085-280300-
CENTRAL UPPER MICHIGAN

CITY           SKY/WX    TMP DP  RH WIND       PRES   REMARKS
MANISTIQUE     FAIR      57  56  94 CALM      29.88R
ESCANABA       FAIR      64  59  83 CALM      29.89R
MENOMINEE      FAIR      65  60  84 E5        29.89R
SAWYER-GWINN   CLEAR     72  59  64 SE5       29.90R
$$
MIZ001>003-009>011-084-280300-
WESTERN UPPER MICHIGAN

CITY           SKY/WX    TMP DP  RH WIND       PRES   REMARKS
IRON MOUNTAIN  FAIR      76  62  62 SE6       29.88R
HOUGHTON       FAIR      62  56  80 MISG      29.87R
COPPER HARBOR    N/A     63  57  81 SW7       29.84R
IRONWOOD       FAIR      70  63  78 CALM      29.88R
$$

ABBREVIATIONS USED IN REMARKS
   TC - TEMPERATURE IN CELSIUS
  WCI - WIND CHILL INDEX
   HX - HEAT INDEX
  VSB - VISIBILITY




USA.gov is the U.S. government's official web portal to all federal, state and local government web resources and services.